{"data":{"norad_id":56467,"intl_designator":"2023-064V","name":"STARLINK-6055","alt_names":[],"object_type":"PAYLOAD","status":"ACTIVE","operator":null,"country":"US","launch_date":"2023-05-10","launch_site_code":"AFWTR","launch_vehicle":null,"mission":null,"orbit_class":"UNKNOWN","rcs_meters":null,"size_class":null,"mass_kg":null,"dimensions":null,"purposes":["comms"],"wikipedia_slug":null,"has_3d_model":false,"image_url":null,"decayed_at":null,"tle_current":{"epoch":"2026-09-20T22:00:03.000096Z","epoch_age_seconds":76069,"freshness":"FRESH","line1":"1 56467U 23064V   26263.91670139 -.00002314  00000+0 -14554-3 0  9991","line2":"2 56467  70.0001 352.1579 0004178 271.6566 101.1050 15.07488852  5767","mean_motion":15.07488852,"eccentricity":0.0004178,"inclination_deg":70.0001,"raan_deg":352.1579,"arg_perigee_deg":271.6566,"mean_anomaly_deg":101.105,"bstar":-0.00014554,"rev_number":576,"period_min":95.523094455361,"perigee_km":540.98437503539,"apogee_km":546.76840942594,"semimajor_km":6922.0133922307,"source":"CELESTRAK","updated_at":"2026-09-21T09:00:33.444905Z"}}}